Notices

What's New in latest Release from April 7th, 2021:

- Updated Glossary, including Speed of Maximum Gust, and Total Hourly Precipitation

- Updated national and regional climate services offices contacts and prices information

- Addition of station inventory lists for 1981-2010, 1971-2000, and 1961-1990 Normals.

If you haven't already, please take our survey and provide feedback about our website: https://eccc.sondage-survey.ca/f/LanguageSelection.aspx?s=442ca660-fcf1-47c0-95a9-59707d6fd709

Hourly Data Report for August 16, 2015

IQALUIT CLIMATE
NUNAVUT

63°44'50.000" N
68°32'40.000" W
33.50 m
2402592
71321
XFB

Download Data

Hourly Data (August 2015)
Hourly Data Report for August 16, 2015
TIME
LST
Temp Definition
°C
Dew Point Definition
°C
Rel Hum Definition
%
Precip. Amount Definition
mm

Wind Dir Definition
10's deg

Wind Spd Definition
km/h
Visibility Definition
km
Stn Press Definition
kPa
Hmdx Definition


Wind Chill Definition


Weather Definition


00:00 6.5 2.0 73 0.0 16 2   100.31     LegendNANA
01:00 5.8 1.6 74 0.0 19 3   100.30     LegendNANA
02:00 4.6 1.3 79 0.0 16 3   100.31     LegendNANA
03:00 4.4 1.9 84 0.0 14 4   100.30     LegendNANA
04:00 6.6 1.9 72 0.0 25 5   100.28     LegendNANA
05:00 6.4 2.0 73 0.0 21 4   100.28     LegendNANA
06:00 6.1 2.2 76 0.0 16 1   100.25     LegendNANA
07:00 4.9 1.5 79 0.0 15 8   100.25     LegendNANA
08:00 5.3 2.3 81 0.0 13 3   100.26     LegendNANA
09:00 5.7 2.3 79 0.0 16 6   100.27     LegendNANA
10:00 6.5 2.3 74 0.0 14 7   100.27     LegendNANA
11:00 5.7 2.0 77 0.0 14 6   100.28     LegendNANA
12:00 5.6 2.3 80 0.0 13 5   100.28     LegendNANA
13:00 6.9 3.7 80 0.0 13 10   100.26     LegendNANA
14:00 7.3 4.4 82 0.0 15 7   100.24     LegendNANA
15:00 9.8 2.7 61 0.0 28 17   100.22     LegendNANA
16:00 9.5 2.7 62 0.0 28 16   100.22     LegendNANA
17:00 8.8 3.0 67 0.0 28 18   100.25     LegendNANA
18:00 8.4 2.5 66 0.0 28 16   100.28     LegendNANA
19:00 7.7 2.8 71 0.0 29 19   100.31     LegendNANA
20:00 7.5 2.5 70 0.0 29 17   100.35     LegendNANA
21:00 7.4 2.3 70 0.0 30 10   100.32     LegendNANA
22:00 6.5 2.1 73 0.0 29 6   100.27     LegendNANA
23:00 5.4 2.2 79 0.0 17 5   100.27     LegendNANA

Notes on Data Quality.

Legend

  • E = Estimated
  • M = Missing
  • NA = Not Available*
  • [empty] = Indicates an unobserved value
Date modified: